Location: Gajan
(43.0218°N, 1.1244°E)
Time: 02:43:01
(UTC+00:00)

Cosmos 389 Rocket - Pass Details

Date: 22 April 2021
Orbit: 441 x 472 km, 81.1° (Epoch: 15 May)

Event Time Altitude Azimuth Distance (km) Brightness Sun altitude
Rises 19:16:25 0° 161° (SSE) 2,470 5.7 -6.0°
Reaches altitude 10° 19:18:43 10° 147° (SSE) 1,607 4.7 -6.4°
Maximum altitude 19:21:36 24° 92° (E) 1,008 3.6 -6.8°
Drops below altitude 10° 19:24:31 10° 37° (NE) 1,633 5.1 -7.3°
Sets 19:26:52 0° 23° (NNE) 2,520 6.2 -7.7°
